Location: *
(48.8489°N, 2.3218°E)
Time: 10:03:37
(UTC+00:00)

SPOT 5 - Pass Details

Date: 23 August 2019
Orbit: 623 x 815 km, 98.3° (Epoch: 16 September)

Event Time Altitude Azimuth Distance (km) Brightness Sun altitude
Exits shadow 21:37:10 60° 205° (SSW) 718 2.6 -22.8°
Maximum altitude 21:37:47 70° 257° (WSW) 666 2.7 -22.8°
Drops below altitude 10° 21:42:09 10° 342° (NNW) 2,022 6.2 -23.3°
Sets 21:44:23 0° 344° (NNW) 2,949 7.2 -23.5°
